USA 159 (DSP 21)

Last updated on Mon Oct 27 2025 00:02:45 GMT+0000 (Coordinated Universal Time)

1 26880U 01033A 25299.09627978 -.00000286 00000+0 00000+0 0 9991 2 26880 12.5653 18.0458 0000692 233.6015 128.4262 1.00280539 30625
UTC large
Height (km)
Speed (km/s)
/
Latitude / Longitude
Inclination (degrees)
Orbital Period (minutes)
Azimuth
Elevation
Range (km)
Doppler Factor

Next 0 passes for location: London (51.5072 / 0.1276)

Sorry there are no passes over London.